Home > Weather > Mount Pearl > Past weeks

Flag for Canada Weather for the Past 2 Weeks in Mount Pearl, Newfoundland and Labrador, Canada

Now
19 °F

Clear.


Feels Like: 8 °F
Forecast: 18 / 29 °F
Wind: 10 mph from Southwest

Location: St. John's

Current Time: Feb 12, 2016 at 3:06:16 AM

Latest Report: Feb 12, 2016 at 2:30 AM


Visibility: 15 mi

Pressure: 29.55 "Hg

Humidity: 86%

Dew point: 16 °F

Location of Mount PearlLocation

Historic Weather in Mount Pearl — Graph

°F

Mount Pearl Temperature Yesterday

Maximum temperature yesterday: 28 °F (at 12:30 AM)
Minimum temperature yesterday: 21 °F (at 11:30 PM)
Average temperature yesterday: 27 °F

High & Low Weather Summary for the Past Weeks

 TemperatureHumidityPressure
High55 °F (Feb 6, 5:30 AM)100% (Jan 29, 5:30 PM)30.39 "Hg (Jan 29, 5:30 PM)
Low16 °F (Feb 3, 5:30 AM)54% (Feb 3, 2:30 PM)28.69 "Hg (Jan 30, 4:30 AM)
Average29 °F84%29.79 "Hg
* Reported Jan 28 1:30 AM — Feb 12 1:30 AM, Mount Pearl, Weather by CustomWeather, © 2016

Note: Actual official high and low records may vary slightly from our data, if they occured in-between our weather recording intervals... More about our weather records

Advertising

Mount Pearl Weather History for the Previous 24 Hours

 ConditionsComfort  
Time TempWeatherWind HumidityBarometerVisibility
1:30 AM
Fri, Feb 12
19 °FClear.7 mph86%29.56 "Hg15 mi
12:30 AM21 °FClear.7 mph86%29.56 "Hg15 mi
11:30 PM
Thu, Feb 11
21 °FClear.9 mph86%29.54 "Hg15 mi
10:30 PM23 °FPassing clouds.12 mph86%29.52 "Hg15 mi
9:30 PM23 °FOvercast.13 mph93%29.50 "Hg15 mi
8:30 PM25 °FOvercast.14 mph86%29.48 "Hg15 mi
7:30 PM27 °FSnow flurries. Passing clouds.9 mph86%29.44 "Hg15 mi
6:30 PM27 °FSnow flurries. Overcast.9 mph93%29.41 "Hg10 mi
5:30 PM27 °FSnow flurries. Overcast.8 mph93%29.39 "Hg2 mi
4:30 PM28 °FSnow flurries. Mostly cloudy.5 mph93%29.39 "Hg4 mi
3:30 PM28 °FSnow showers. Ice fog.2 mph93%29.37 "Hg1 mi
2:30 PM28 °FHeavy snow. Ice fog.N/A93%29.39 "Hg0 mi
1:30 PM28 °FSnow flurries. Low clouds.13 mph86%29.36 "Hg1 mi
12:30 PM28 °FSnow flurries. Low clouds.10 mph93%29.39 "Hg12 mi
11:30 AM28 °FSnow flurries. Partly sunny.13 mph86%29.42 "Hg8 mi
10:30 AM27 °FSnow flurries. More clouds than sun.7 mph93%29.47 "Hg4 mi
9:30 AM27 °FSnow flurries. Overcast.5 mph93%29.50 "Hg5 mi
8:30 AM27 °FLow clouds.No wind86%29.52 "Hg15 mi
7:30 AM27 °FOvercast.3 mph93%29.54 "Hg15 mi
6:30 AM27 °FOvercast.2 mph86%29.51 "Hg15 mi
5:30 AM27 °FOvercast.6 mph93%29.53 "Hg15 mi
4:30 AM27 °FOvercast.6 mph93%29.56 "Hg15 mi
3:30 AM27 °FOvercast.8 mph86%29.55 "Hg15 mi
Weather by CustomWeather, © 2016

See weather overviewHow to use our weather pages